CAPE
569 1028 2156 1646 1155 1367 1570 1647 1747 1729 1812 2366 2615 2230 2080 2147 2186 2120 2451 2415 2454 2472 2249 1956 1945 1955 1895 1483 1818 1936 1974 1980 1570 1990 1784 1634 1511 1657 1915 1514 2101 1355 1879
359 924 2109 1741 1348 1538 1618 1958 2078 2299 2210 2338 2424 2360 2151 1923 2301 2645 2636 2117 1861 1764 1820 1822 1640 1851 1730 1537 1147 1583 1452 1577 1954 1966 1998 1964 1849 2015 2107 1921 1915 1655 1949
672 1062 1531 1805 1263 1470 1554 1993 2078 2263 2251 2299 2407 2225 2082 2078 2244 1611 1968 1868 2013 1881 1729 894 1160 1483 1684 1839 1541 1594 1618 1410 1185 1657 2517 1375 1723 2078 2104 2061 1952 1904 1954
690 540 272 2222 1704 1211 1838 1933 1890 2066 2270 2287 2182 2316 2182 2139 2644 2107 2124 2050 2492 2138 1451 1562 1572 1521 1790 1563 1454 1489 1484 1550 1104 1328 959 1001 1210 1708 1885 1857 1933 1939 1954
622 647 1630 1853 1798 1696 1828 1750 1853 2018 2243 2223 2262 2200 2198 2047 2190 2045 1952 1837 2032 1869 1912 1961 1701 1650 1527 1530 1519 1557 1835 2494 2111 1150 1136 1171 1260 1661 1930 2062 1916 1905 1919
703 1082 1914 1855 1842 1912 1924 1834 1890 2153 2282 2511 2366 2157 2175 2092 1949 1991 1833 1834 2065 2066 2112 1999 2039 1661 1389 1259 1300 1541 1779 2954 1697 417 540 1318 1152 2099 1993 1961 1934 2021 1880
529 839 1194 2037 1795 1935 1945 1994 2091 2155 2251 2366 2453 2397 2168 2021 2116 2016 2067 2302 2243 2247 2358 2356 1862 1487 1264 1148 1318 1717 2013 2247 497 413 560 638 1080 2018 2009 1990 1503 1551 1623
546 699 1164 1926 1856 1842 1866 1997 2037 2207 2242 2265 2644 2288 2515 2580 2803 2296 2468 2609 2304 2167 1887 1461 1319 1253 982 1017 1219 1381 1791 2398 811 500 586 772 1598 1278 1160 1360 1309 1417 1350
412 533 866 1220 1769 1908 2046 1822 1992 2132 2108 2067 2243 2351 2840 2536 2350 2714 3066 2461 2087 2116 2225 1575 1280 1057 889 926 890 976 1335 2435 1160 1040 275 472 1571 1008 924 934 890 870 779
430 490 973 1239 1132 1334 1452 1932 2093 1979 2035 2188 2227 2438 2890 2783 2330 2214 2774 2839 2034 2030 2177 2156 1651 1295 1172 1035 642 572 931 1284 245 220 532 867 1281 659 598 577 591 623 706
462 688 909 667 1075 1707 1792 1925 2090 2164 2149 2408 2101 2482 2486 1892 2092 1981 2513 2552 2128 2111 2155 2353 2238 1922 1498 1277 1463 1384 1563 1274 33 79 355 1228 1054 572 566 557 597 713 919
424 458 627 755 630 790 842 2112 2255 1607 1723 2047 1965 2109 2338 2544 2366 1380 1886 2173 2111 2097 2243 2641 2731 2336 1662 1854 1477 1759 822 300 30 419 1279 1725 1130 801 719 736 815 876 933
196 590 500 783 1375 827 1623 1980 1374 2057 1891 1612 2220 2682 2848 1579 1292 1335 1790 2016 2051 1977 1720 2178 2643 2371 1221 1249 1521 627 376 393 84 103 1177 1485 1698 860 839 787 895 1057 1094
289 721 315 985 1801 1079 1321 1451 1694 1801 1629 866 1364 2046 3161 1568 2256 1035 1772 299 1269 1811 1375 1843 2194 2656 1479 1371 517 463 311 287 110 250 1189 1448 954 819 760 734 834 911 1013
92 784 462 1256 1705 1990 1270 1121 1502 1131 1355 1863 1978 2067 2114 1571 2940 1741 660 916 473 510 1347 2339 1945 2106 2289 1606 968 661 435 568 56 34 529 1517 1329 1111 1113 993 1007 974 1006
216 1036 620 708 1498 1767 2517 2837 843 763 1304 1692 2427 1512 1759 1294 2119 1238 523 1745 1499 1178 2518 1437 851 973 2070 1073 1616 1310 816 1002 1282 7 136 963 1709 1356 1031 1236 1114 1210 1361
67 890 819 823 808 1740 1954 2066 1896 986 1317 1697 1816 1788 1141 2574 1449 597 1106 1929 2556 2538 2194 3024 3033 2021 1394 1178 1696 1747 1431 1498 1514 1090 206 245 968 1820 1588 1308 1318 1466 1568
225 932 758 639 829 1268 2092 2145 1300 1221 557 1653 1993 2544 2816 2749 2036 1689 2306 2411 3177 3668 3533 2177 2432 2425 1834 1902 1492 1911 1800 1520 1993 2047 2030 1097 879 631 1892 2154 2166 2272 2058
509 610 139 945 1015 1171 2829 1317 2225 1289 1756 1774 2252 2185 2820 2715 1491 2933 1634 2288 2743 3335 497 1319 1621 2182 2200 1323 1515 1863 1905 1710 2207 1740 2295 2564 2302 1577 1521 2068 2258 2399 2492
434 518 756 1037 1792 1936 493 1170 1938 905 1204 1362 2039 2766 2899 2420 2588 2751 2980 2895 2105 3068 1062 3062 2728 1719 3245 962 1217 1510 1901 2007 2177 2149 2381 2042 2346 2381 1999 2052 1985 1959 2635
396 895 1119 1114 2020 1418 1911 1033 1534 1531 1566 1907 1369 2841 2991 2621 2338 3529 3123 2948 775 1919 2883 2986 2818 3154 3110 2792 3518 2246 1653 1724 1897 1998 2179 1902 2269 2199 2080 2840 3304 2713 1850
479 945 1926 2298 2454 2332 2243 2325 1811 1076 2048 2022 2554 2857 2499 2095 2783 2753 2745 2750 645 2033 3435 3156 3568 3724 2228 2364 2407 2599 2125 2068 1550 1301 2033 1936 1946 1269 2109 3113 2900 2847 3006
754 1163 1229 1273 2718 2517 2196 1066 1813 493 1972 1006 2279 2583 2446 2094 2564 2020 2445 1737 2343 1467 2168 3388 3557 3727 2870 2031 2922 2991 2357 1687 1684 1377 1488 2037 1730 2234 2021 2211 2581 3004 2918
489 909 1993 2007 2403 1885 954 1354 1982 1797 380 1505 1750 667 981 2771 2305 2584 2552 2201 2052 899 1093 2856 3400 3708 3829 3066 2146 2037 3100 2400 2683 2214 1833 1677 2121 1877 2164 2524 1911 2636 3077
345 523 1240 2295 2660 2486 2608 1966 2239 1924 1849 1545 1324 838 1096 2247 2595 2069 2793 2717 2642 1995 1561 1026 2603 4183 3740 3339 2703 2921 2726 3345 3235 1612 1881 1386 1700 2091 1191 1774 1642 2209 2643
562 825 1396 2339 2706 2903 2598 2507 2227 1800 1500 1547 306 1169 1210 1969 2367 3000 2071 3182 3059 958 1432 2766 3246 3377 4160 3764 3634 2697 171 48 0 447 1385 1494 1898 1719 1785 1637 1069 1979 2452
CIN
-26 -15 0 0 -8 0 0 0 0 -1 -5 -1 0 0 0 0 0 0 0 0 0 0 0 0 0 0 0 0 0 0 0 -1 -10 0 0 -1 -4 -2 0 -3 0 0 0
-38 -16 0 0 0 0 0 0 0 0 0 0 0 0 0 0 0 0 0 0 0 0 0 0 0 0 0 0 -5 0 -4 -5 -1 -5 -2 0 0 0 -2 -3 0 0 0
-21 -15 0 0 0 0 0 0 0 0 0 0 0 0 0 0 0 -1 0 0 0 0 0 -4 0 0 0 0 -4 -5 -7 -7 -4 -3 -2 -3 0 0 0 0 0 0 0
-5 -16 -54 0 0 0 0 0 0 0 0 0 0 0 0 0 0 0 0 0 0 0 0 0 0 0 0 -7 -18 -20 -18 -8 -27 -9 -3 -2 0 0 0 0 0 0 0
-6 -36 -1 0 0 0 0 0 0 0 0 0 0 0 0 0 0 0 0 -1 0 0 0 0 0 0 -2 -7 -25 -43 -42 -11 -8 -6 -9 -25 -14 -1 0 0 0 0 0
-4 -26 0 0 0 0 0 0 0 0 0 0 0 0 0 0 0 0 0 -2 0 0 0 0 0 0 -6 -21 -31 -45 -35 -14 -1 -32 -36 -3 -3 0 0 0 0 0 0
-19 -38 -5 0 0 0 0 0 0 0 0 0 0 0 0 0 0 0 0 0 0 0 0 0 0 0 -18 -35 -46 -46 -16 -8 -31 -65 -45 -44 -2 0 0 0 0 0 0
-16 -39 -1 0 0 0 0 0 0 0 0 0 0 0 0 0 0 0 0 0 0 0 0 -4 -12 -22 -43 -53 -53 -49 -36 -3 -5 -66 -68 -43 0 -3 -4 0 -2 0 0
-12 -33 -18 -1 0 0 0 0 0 0 0 0 0 0 0 0 0 0 0 0 0 0 0 -9 -31 -51 -69 -71 -79 -75 -61 -16 -15 -25 -134 -124 0 -36 -50 -41 -49 -48 -58
-49 -61 -11 -1 0 -1 0 0 0 0 0 0 -1 0 0 0 -4 -6 0 0 -1 -1 -4 -9 -36 -62 -75 -87 -95 -94 -72 -43 -80 -160 -123 -78 -20 -112 -118 -122 -116 -102 -84
-30 -20 -27 -32 -7 -6 0 0 0 0 -3 -2 -7 -9 -13 -14 -4 -2 -7 -1 -12 -18 -30 -34 -29 -34 -57 -71 -85 -91 -94 -64 -197 -235 -199 -51 -70 -151 -147 -136 -119 -96 -62
-5 -5 -2 -11 -2 -6 -3 -4 -2 -16 -7 -5 -12 -17 -38 -8 -9 -13 -30 -23 -20 -23 -31 -38 -37 -21 -51 -70 -83 -91 -77 -80 -227 -168 -80 -23 -81 -127 -133 -115 -100 -88 -87
-11 -12 -38 -42 -11 -12 -22 -8 -57 -13 -13 -72 -20 -20 -16 -20 -39 -37 -50 -13 -25 -81 -18 -44 -53 -39 -159 -208 -86 -36 -72 -88 -218 -278 -130 -70 -42 -140 -137 -143 -121 -96 -98
-10 -20 -12 -3 -5 -18 -21 -27 -24 -14 -37 -196 -108 -82 -29 -46 -20 -101 -66 -163 -110 -23 -104 -109 -53 -31 -24 -18 -17 -36 -53 -77 -200 -249 -158 -112 -163 -186 -195 -203 -183 -172 -146
-1 -12 -13 -3 -6 -3 -15 -57 -27 -44 -28 -24 -16 -21 -27 -42 -24 -37 -164 -176 -190 -259 -160 -53 -79 -59 -29 -12 -22 -37 -67 -51 -243 -179 -267 -143 -151 -176 -171 -191 -189 -192 -179
-1 -21 -17 -4 -9 -18 -12 -10 -56 -45 -11 -11 -14 -124 -103 -61 -86 -135 -138 -67 -106 -182 -36 -136 -214 -212 -66 -35 -21 -15 -38 -40 -33 -163 -375 -254 -145 -176 -219 -189 -200 -183 -156
-1 -4 -18 -3 -34 -1 -10 -5 -14 -28 -25 -12 -13 -90 -97 -36 -113 -259 -144 -55 -34 -27 -16 -26 -39 -56 -60 -37 -34 -22 -18 -31 -31 -93 -285 -372 -270 -160 -170 -203 -197 -179 -169
-5 -4 -26 -2 -22 -10 -13 -5 -49 -40 -76 -25 -14 -2 -2 -3 -67 -84 -37 -43 -10 -21 -34 -41 -70 -48 -38 -63 -61 -39 -39 -62 -33 -18 -32 -152 -247 -256 -187 -145 -144 -137 -151
-3 -2 -37 -12 -11 -25 -2 -17 -1 -68 -54 -39 -27 -23 -10 -1 -106 -45 -52 -32 -33 -27 -210 -118 -66 -65 -20 -48 -25 -36 -41 -66 -46 -25 -24 -15 -39 -134 -167 -197 -175 -169 -150
-2 -2 -21 -26 -34 -14 -111 -68 -25 -148 -49 -45 -42 -6 -1 -6 -1 -28 -14 -16 -54 -36 -158 -35 -48 -65 -38 -64 -42 -14 -29 -22 -41 -60 -37 -32 -39 -35 -85 -173 -225 -203 -181
-1 -8 -24 -39 -34 -29 -12 -47 -30 -26 -22 -38 -73 -7 -6 -2 0 -5 -30 -19 -359 -101 -15 -13 -25 -43 -34 -24 -22 -29 -42 -29 -28 -45 -48 -40 -50 -46 -48 -35 -85 -101 -231
-1 -15 -29 -4 -4 -7 -5 -23 -33 -52 -24 -36 -11 -4 -6 -20 -9 -9 -34 -33 -202 -71 -6 -7 -5 -19 -31 -39 -49 -70 -33 -48 -51 -27 -25 -25 -30 -92 -34 -28 -52 -37 -101
-2 -2 -37 -50 -3 -6 -3 -82 -28 -163 -13 -100 -18 -4 -9 -15 -2 -24 -47 -123 -47 -156 -101 -17 -9 -21 -42 -36 -18 -41 -55 -75 -64 -69 -45 -42 -40 -45 -58 -39 -54 -57 -48
-8 -2 -7 -13 -6 -10 -78 -41 -13 -13 -105 -19 -37 -91 -162 -7 -11 -3 -11 -65 -21 -85 -170 -44 -8 -21 -24 -36 -44 -39 -44 -73 -51 -24 -56 -67 -59 -27 -30 -56 -56 -68 -78
-16 -18 -8 -5 -5 -5 -7 -7 -8 -13 -12 -57 -74 -92 -91 -23 -10 -10 -7 -3 -11 -35 -50 -168 -94 -18 -18 -33 -69 -34 -47 -55 -52 -43 -45 -61 -88 -63 -94 -113 -41 -95 -46
-12 -10 -7 -5 -3 -2 -2 -3 -5 -1 -13 -35 -143 -46 -20 -23 -15 -1 -18 -1 -5 -102 -105 -15 -5 -16 -12 -29 -43 -72 -408 -389 0 -334 -85 -92 -50 -52 -56 -69 -62 -97 -109
Wind_Speed
16 15 12 10 9 9 9 8 10 10 11 13 12 13 14 13 16 14 14 14 14 14 16 18 18 17 16 16 14 13 13 13 15 17 18 18 15 12 10 12 15 14 15
19 16 13 13 12 9 9 9 10 11 12 12 12 12 13 14 15 15 15 14 15 16 17 17 17 18 15 13 12 11 11 10 11 16 21 20 18 17 17 17 17 14 15
19 15 13 11 11 12 10 10 9 11 12 12 12 12 13 14 15 15 15 15 16 16 16 17 17 15 15 13 10 8 8 7 8 6 20 11 12 18 18 17 16 16 16
19 16 14 11 12 11 11 11 11 11 12 12 12 12 13 14 13 15 16 15 15 15 15 17 16 14 15 11 8 8 8 7 13 11 11 12 13 17 15 16 15 16 16
18 17 13 13 13 11 11 12 12 11 12 13 13 12 14 15 15 16 15 14 15 14 14 15 16 14 13 10 7 8 11 10 18 19 11 9 8 12 15 16 16 16 15
18 16 14 13 12 12 12 12 12 12 13 13 13 12 14 15 15 15 14 12 13 12 12 13 14 13 12 8 5 6 11 11 12 12 11 13 9 15 15 16 15 15 14
19 17 14 13 12 12 12 12 12 12 12 12 12 13 14 14 14 14 13 14 14 14 16 16 15 13 10 7 4 9 11 16 10 10 10 9 8 13 15 15 14 13 13
19 17 15 14 13 13 12 12 12 12 12 12 12 12 13 14 13 14 15 15 16 15 15 14 13 12 9 4 3 3 7 11 12 12 10 7 9 12 13 13 12 12 12
18 17 15 14 13 13 13 12 13 12 12 12 13 13 13 13 14 13 12 14 14 14 14 14 13 12 8 5 2 3 3 6 7 7 11 6 9 11 11 11 11 10 10
16 9 15 14 13 12 11 12 12 13 13 13 13 14 14 13 13 14 11 11 13 13 12 12 12 12 11 8 5 3 6 5 11 10 7 5 8 9 9 9 9 8 8
14 14 15 13 8 11 10 9 11 12 13 12 9 11 13 9 8 8 10 10 12 13 14 14 12 8 1 6 7 8 7 4 10 8 5 6 7 8 8 7 7 6 6
17 11 13 9 14 12 10 10 8 8 7 6 6 7 5 4 6 9 9 10 9 5 7 10 13 12 13 5 6 8 2 6 8 7 5 6 7 6 6 5 4 4 4
20 15 12 7 9 8 8 4 4 4 6 5 1 6 5 5 5 6 4 2 3 5 3 6 6 6 14 7 7 5 6 6 6 5 7 6 6 5 4 3 2 2 2
16 13 12 9 3 10 7 5 8 6 10 5 5 9 4 2 3 3 5 9 7 7 16 5 4 4 1 1 4 4 4 5 7 6 6 7 5 4 3 1 0 2 3
14 15 11 7 3 1 5 4 4 9 8 10 8 5 6 3 3 9 4 4 5 5 2 3 7 5 5 3 5 7 5 5 11 6 4 9 7 4 3 1 2 2 3
13 16 11 7 4 5 5 5 4 4 7 8 4 10 7 4 7 3 4 3 2 3 1 6 13 7 3 5 6 4 6 4 5 9 6 6 9 7 5 4 4 4 4
11 17 8 12 3 4 4 3 2 4 6 6 7 14 10 7 7 5 3 1 4 0 1 0 4 7 5 5 5 3 4 6 0 6 8 7 7 10 9 8 7 7 6
13 14 13 16 9 6 3 1 2 0 7 3 5 4 4 4 13 9 5 2 2 4 3 4 3 4 4 5 4 4 5 5 5 3 4 7 7 6 9 11 10 10 9
13 9 11 8 12 5 5 1 3 9 4 5 4 4 4 4 0 3 1 3 2 5 4 4 3 4 2 2 4 4 5 5 6 6 4 4 6 8 6 11 12 11 11
13 8 12 7 10 6 5 2 3 3 1 4 4 4 3 2 4 3 4 3 2 2 4 1 5 3 2 4 5 4 3 3 4 5 5 7 4 5 7 8 6 6 12
14 7 8 9 8 3 4 4 2 3 2 4 4 5 5 3 2 4 3 4 8 6 3 4 3 5 3 3 1 1 2 3 4 5 5 6 7 8 6 4 6 4 5
15 12 8 10 9 5 3 2 2 2 2 2 5 5 4 5 4 2 4 6 7 5 2 2 2 3 2 3 1 1 2 3 4 5 1 4 5 5 5 6 5 2 5
16 14 12 9 9 8 3 2 3 4 3 3 1 2 3 4 4 2 5 7 5 6 5 5 2 5 2 1 3 3 2 1 3 2 3 2 2 0 4 4 7 6 4
16 14 15 14 10 8 6 6 7 5 3 3 2 5 6 5 5 5 5 8 6 12 11 8 1 3 4 3 2 4 1 2 2 1 1 4 4 4 3 4 5 6 7
17 16 13 11 11 6 8 3 4 5 4 6 5 5 10 9 4 5 4 5 5 6 9 4 7 5 3 3 3 2 2 3 1 1 2 2 2 4 5 5 3 4 3
17 15 15 12 11 7 7 8 5 1 4 5 6 4 5 4 3 4 4 3 3 12 9 4 4 4 4 5 4 7 7 3 3 1 5 3 1 4 3 3 3 8 8
Wind_Direction
119 127 132 126 116 110 108 96 91 91 91 91 85 86 87 85 95 96 95 92 91 85 82 82 81 76 76 78 74 77 82 90 95 89 83 76 79 96 95 115 100 89 88
122 122 123 123 121 116 105 101 101 97 93 96 96 93 92 90 90 92 91 89 89 91 88 86 87 88 82 77 82 87 89 86 97 108 93 80 79 81 82 79 84 90 94
116 129 120 116 120 117 122 105 99 100 100 101 96 100 102 98 98 95 99 96 95 97 95 88 89 84 84 74 77 79 79 85 87 124 95 87 77 78 81 86 89 86 86
136 122 112 110 115 116 112 112 109 110 109 106 104 101 107 103 95 99 103 102 93 93 98 95 89 90 82 77 56 42 31 37 109 64 70 73 80 81 85 91 93 94 88
98 101 109 110 109 115 122 115 113 111 107 107 110 106 105 103 101 99 98 101 99 96 93 88 87 85 83 78 54 19 1 6 143 83 87 92 86 83 84 94 90 82 83
102 103 111 112 106 110 111 110 111 108 107 103 109 109 109 103 103 100 101 108 105 98 98 103 99 89 90 78 52 16 5 332 116 88 82 70 70 75 84 84 83 82 82
111 117 109 113 108 105 107 103 102 102 105 105 104 109 110 107 106 98 103 108 109 100 88 95 93 97 93 81 31 11 24 72 87 83 83 83 79 72 71 89 82 80 78
114 117 116 114 112 104 102 101 103 107 107 107 112 113 115 112 108 106 101 106 101 98 95 97 104 106 105 100 45 354 14 91 99 97 86 82 80 79 76 76 79 75 74
116 116 125 125 116 107 107 113 114 112 112 114 116 121 116 117 117 109 102 103 104 104 107 112 119 124 133 150 204 297 346 63 97 104 100 89 79 83 80 78 77 77 76
109 132 113 138 137 132 119 116 122 121 125 126 131 132 129 132 125 123 117 111 113 120 122 130 138 146 158 170 196 277 314 303 110 89 80 92 90 89 86 82 80 77 73
133 125 129 124 141 113 129 130 134 135 134 129 138 143 160 140 136 142 112 136 137 141 152 153 142 126 108 281 220 216 241 226 98 97 97 106 101 96 91 84 77 72 69
115 115 122 111 136 151 126 158 148 139 144 142 152 183 211 114 145 126 153 156 139 157 174 165 149 140 19 271 255 245 255 87 97 106 105 129 113 107 99 90 81 69 57
128 113 113 145 145 129 145 165 138 168 129 47 359 207 187 137 147 166 132 114 148 163 312 224 184 171 187 227 240 199 136 129 111 90 123 128 133 116 110 98 79 37 23
105 112 126 80 77 151 165 165 164 189 111 165 237 253 217 167 210 337 69 85 291 114 226 235 200 196 15 61 88 56 87 116 115 114 138 152 147 143 126 118 351 344 344
130 117 113 105 42 271 151 178 144 102 148 178 201 197 89 73 1 74 163 172 170 291 128 90 27 316 195 96 61 98 44 45 121 120 135 159 167 173 168 202 270 300 307
127 125 126 129 73 352 70 96 96 180 149 170 105 53 355 66 35 99 5 294 336 245 106 144 169 240 267 92 38 76 105 41 62 129 143 164 181 186 190 217 242 260 273
135 116 130 131 119 84 115 123 177 73 82 95 94 133 222 131 95 257 211 7 223 327 8 165 243 175 149 113 154 122 119 124 110 133 146 157 175 194 195 210 226 240 252
129 131 181 137 150 165 101 296 349 349 122 213 130 146 94 54 145 214 193 274 276 327 232 232 223 246 130 160 183 161 115 126 173 263 128 158 163 165 203 209 217 225 235
124 159 108 131 132 146 128 288 129 60 23 103 116 136 145 137 197 262 206 245 327 25 356 336 345 40 320 85 137 159 148 162 192 126 186 143 164 166 190 197 215 228 231
134 179 134 121 117 183 70 278 55 54 352 93 113 115 143 138 155 256 227 150 329 66 203 281 54 332 33 232 320 136 141 111 151 161 186 157 186 191 172 178 189 222 231
146 156 129 130 118 102 178 127 169 186 180 120 138 193 156 191 172 319 322 282 116 246 71 39 3 331 306 51 62 246 112 184 219 181 199 172 189 203 159 192 171 201 197
150 138 118 135 132 165 214 131 96 110 269 153 163 155 203 186 150 279 298 4 11 323 59 51 310 294 309 62 356 226 187 240 208 177 114 186 195 164 159 153 129 211 153
151 155 149 150 170 186 170 97 65 354 24 36 316 195 205 206 180 174 67 23 297 31 348 268 247 8 354 345 228 119 357 273 129 145 205 86 271 250 126 176 173 182 215
156 162 151 162 180 178 177 186 185 173 168 163 166 13 339 257 201 179 152 188 108 97 256 287 170 67 339 309 290 125 212 194 192 105 182 135 225 210 203 211 195 180 209
162 159 156 158 170 182 163 150 201 186 182 107 64 142 235 260 243 181 203 169 159 136 227 318 309 43 7 342 13 343 47 315 25 263 197 162 259 209 210 245 184 176 196
160 149 156 162 166 167 172 166 206 200 68 96 106 250 240 251 268 225 233 133 63 84 282 250 297 14 359 338 8 55 75 31 294 313 93 347 206 247 209 212 82 357 27